Regional Weather Roundup
Issued by NWS Albany, NY

Home | Current Version | Previous Version | Text Only | Print | Product List | Glossary On
Versions: 1 2 3 4 5 6 7 8 9 10 11 12 13 14 15 16 17 18 19 20 21 22 23 24 25 26 27 28 29 30 31 32 33 34 35 36 37 38 39 40 41 42 43 44 45 46 47 48 49 50
399
ASUS41 KALY 211710
RWRALY

NEW YORK STATE HOURLY WEATHER ROUNDUP
NATIONAL WEATHER SERVICE ALBANY NY
100 PM EDT SAT OCT 21 2017

NOTE: "FAIR" INDICATES FEW OR NO CLOUDS BELOW 12,000 FEET WITH NO
SIGNIFICANT WEATHER AND/OR NO OBSTRUCTIONS TO VISIBILITY.

NYZ032-033-038>043-046>054-057>066-NYZ062>081-082-084-211800-
EAST


CITY           SKY/WX    TMP DP  RH WIND       PRES   REMARKS
ALBANY         MOSUNNY   69  41  36 CALM      30.30F
GLENS FALLS    SUNNY     65  44  46 S7        30.28F
POUGHKEEPSIE   SUNNY     71  42  35 W3        30.30F
NEWBURGH       SUNNY     73  45  35 W7        30.33F
MONTGOMERY     SUNNY     74  49  41 S7        30.31F
WHITE PLAINS   SUNNY     76  37  24 W5        30.31F
ISLIP          MOSUNNY   72  51  47 S8        30.31F
NEW YORK CITY  MOSUNNY   77  47  34 N5        30.31F
CENTRAL PARK   SUNNY     76  37  24 CALM      30.34F
$$

NYZ005>009-017-018-044>046-055-056-211800-
CENTRAL


CITY           SKY/WX    TMP DP  RH WIND       PRES   REMARKS
FULTON         CLOUDY    70  45  40 S3        30.28F
SYRACUSE       CLOUDY    72  45  37 VRB3      30.28F
ROME           SUNNY     68  43  40 CALM      30.31F
ELMIRA         CLOUDY    66  44  45 CALM      30.32F
BINGHAMTON     CLOUDY    67  37  33 VRB3      30.34F
MONTICELLO     SUNNY     71  36  27 W5        30.36F
$$

NYZ026>034-041>043-087-211800-
NORTH


CITY           SKY/WX    TMP DP  RH WIND       PRES   REMARKS
WATERTOWN      CLOUDY    68  44  42 SW8       30.27F
FORT DRUM      NOT AVBL
OGDENSBURG     FAIR      71  50  48 SW10      30.25S
MASSENA        SUNNY     70  51  51 SW13      30.24F
SARANAC LAKE   SUNNY     68  44  42 S10       30.27S
PLATTSBURGH    SUNNY     64  45  49 SE12      30.23S
$$

NYZ001>004-010>016-019>021-085-211800-
WEST


CITY           SKY/WX    TMP DP  RH WIND       PRES   REMARKS
NIAGARA FALLS  CLOUDY    73  47  39 S10       30.26F
BUFFALO        CLOUDY    72  42  34 SW10      30.27F
DUNKIRK        CLOUDY    72  44  36 S8        30.27F
JAMESTOWN      CLOUDY    65  44  46 S6        30.32F
WELLSVILLE     MOSUNNY   71  36  27 VRB7      30.35F
ROCHESTER      CLOUDY    69  46  43 S7        30.28F
PENN YAN       CLOUDY    71  42  35 VRB3      30.30F
$$

             KEY
       WCI = WIND CHILL INDEX
       VSB = VISIBILITY
       HX  = HEAT INDEX
$$




USA.gov is the U.S. government's official web portal to all federal, state and local government web resources and services.